[[{"header":{"parameterUnit":"m.s-1","parameterCategory":1,"la1":30.2991,"la2":30.254,"lo1":-89.0895,"lo2":-89.0444,"dy":0.0017,"dx":0.0017,"nx":28,"ny":28,"refTime":"2023-11-13T09:00:00:Z","depth":0,"parameterNumber":2,"parameterNumberName":"U-component_of_WINDS"},"data":[0,0,0,0,0,0,0,0,0,0,0,0,0,0,0,0,0,0,0,0,0,0,0,0,0,0,0,0,0,0,0,0,0,0,0,0,0,0,0,0,0,0,0,0,0,0,0,0,0,0,0,0,0,0,0,0,0,0,-3.6184,-3.6185,0,-3.624,-3.6241,-3.6241,-3.6144,-3.6141,-3.6138,-3.6135,-3.6197,-3.6201,-3.6206,0,0,0,0,0,0,0,0,0,0,0,0,0,-3.5998,-3.6002,-3.6184,-3.6185,-3.6185,-3.624,-3.6241,-3.6241,-3.6145,-3.6141,-3.6137,-3.6133,-3.6195,-3.62,-3.6206,0,0,0,0,0,0,0,0,0,0,0,0,0,-3.6069,-3.6003,-3.6184,-3.6144,-3.6141,-3.624,-3.6241,-3.6242,-3.6146,-3.6141,-3.6136,-3.6131,-3.6193,-3.62,-3.6207,-3.6349,0,0,-3.6228,-3.6232,0,0,0,0,0,0,0,0,-3.6065,-3.6076,-3.6149,-3.6147,-3.6144,-3.618,-3.6197,-3.6278,-3.6147,-3.6144,-3.6135,-3.6129,-3.6195,-3.6202,-3.6223,-3.6352,-3.6354,-3.6229,-3.6233,-3.6236,-3.6238,0,0,0,0,0,0,0,-3.606,-3.6073,-3.6206,-3.615,-3.6147,-3.6124,-3.6129,-3.6212,-3.6197,-3.6144,-3.6137,-3.6145,-3.6193,-3.6217,-3.6224,-3.6355,-3.6229,-3.6235,-3.6239,-3.6242,-3.6604,-3.6609,0,0,0,0,0,0,-3.606,-3.6069,-3.6204,-3.6208,-3.6091,-3.6132,-3.6137,-3.6173,-3.6196,-3.6194,-3.6149,-3.614,-3.6207,-3.6216,-3.6226,-3.6394,-3.6236,-3.6243,-3.6247,-3.6599,-3.6605,-3.6611,0,0,0,0,0,0,-3.6056,-3.6073,-3.6202,-3.6137,-3.6151,-3.614,-3.6182,-3.6177,-3.6201,-3.6199,-3.6196,-3.6176,-3.6204,-3.6216,-3.6319,-3.6395,-3.6246,-3.6253,-3.6592,-3.6601,-3.6608,-3.6732,0,0,0,0,0,0,-3.6051,-3.6072,-3.6125,-3.6139,-3.6155,-3.6294,-3.6187,-3.6182,-3.6213,-3.6202,-3.6224,-3.6223,-3.6201,-3.6309,-3.6326,-3.6402,-3.6258,-3.6585,-3.6596,-3.6606,-3.6722,-3.6744,-3.6763,0,0,0,0,0,-3.6045,-3.6158,-3.6128,-3.6145,-3.6221,-3.6298,-3.6308,-3.6279,-3.6219,-3.6273,-3.6272,-3.6222,-3.6384,-3.632,-3.6339,-3.6418,-3.6581,-3.6593,-3.6605,-3.6712,-3.6739,-3.6762,0,0,0,0,0,0,-3.6155,-3.6159,-3.6126,-3.6247,-3.6273,-3.6282,-3.6349,-3.6308,-3.6353,-3.6341,-3.6304,-3.631,-3.6421,-3.6429,-3.6359,-3.6557,-3.6472,-3.6489,-3.6548,-3.6574,-3.6594,-3.659,-3.6264,0,0,0,0,0,-3.6193,-3.6254,-3.6255,-3.6362,-3.6377,-3.6361,-3.6393,-3.6368,-3.6394,-3.6405,-3.6411,-3.644,-3.6497,-3.6535,-3.6587,-3.6722,-3.6726,-3.6785,-3.6806,-3.6823,-3.6838,-3.6911,-3.6938,-3.6651,-3.6651,-3.665,0,0,-3.6274,-3.6284,-3.6325,-3.6385,-3.6402,-3.6467,-3.6371,-3.6444,-3.6492,-3.6416,-3.6514,-3.652,-3.6549,-3.6668,-3.6721,-3.6679,-3.6918,-3.6838,-3.6852,-3.6858,-3.6926,-3.6953,-3.6978,-3.6659,-3.6658,-3.6656,0,0,-3.6454,-3.6466,-3.6557,-3.6576,-3.6603,-3.6591,-3.6613,-3.6628,-3.6629,-3.6725,-3.667,-3.6728,-3.6827,-3.685,-3.6875,-3.7063,-3.7019,-3.7081,-3.719,-3.7261,-3.7284,-3.7304,-3.7372,-3.7397,-3.7096,-3.7096,-3.7096,0,-3.6551,-3.6645,-3.661,-3.6687,-3.6715,-3.6648,-3.6741,-3.6761,-3.6804,-3.6826,-3.6777,-3.69,-3.6915,-3.7039,-3.7085,-3.7107,-3.7132,-3.7079,-3.7283,-3.7303,-3.7321,-3.7386,-3.7412,-3.7103,-3.7103,-3.7102,-3.7101,0,-3.6764,-3.6831,-3.6901,-3.6943,-3.6979,-3.7064,-3.7042,-3.7084,-3.7056,-3.705,-3.715,-3.7165,-3.722,-3.7247,-3.7221,-3.7368,-3.7341,-3.7289,-3.7203,-3.7356,-3.7417,-3.7441,-3.7114,-3.7111,-3.7109,-3.7107,0,0,-3.7017,-3.7037,-3.7064,-3.7082,-3.7106,-3.7158,-3.7239,-3.7291,-3.7328,-3.736,-3.7429,-3.7514,-3.7465,-3.7493,-3.7469,-3.7531,-3.7681,-3.7471,-3.7471,-3.7511,-3.7846,-3.7887,-3.7917,-3.7651,-3.7656,-3.766,-3.7844,0,-3.7197,-3.7336,-3.7306,-3.7444,-3.7506,-3.7443,-3.7514,-3.7538,-3.7534,-3.7587,-3.7584,-3.7645,-3.7575,-3.7592,-3.7651,-3.7651,-3.7748,-3.7636,-3.7717,-3.7721,-3.7714,-3.7948,-3.7991,-3.8165,-3.7868,-3.7872,-3.7875,0,-3.7425,-3.7465,-3.7609,-3.7623,-3.7648,-3.7712,-3.7758,-3.7809,-3.7834,-3.7827,-3.7859,-3.7822,-3.7905,-3.7817,-3.7931,-3.7856,-3.7887,-3.7892,-3.7898,-3.7906,-3.7808,-3.7964,-3.822,-3.8247,-3.7911,-3.7908,-3.7906,0,-3.7597,-3.7686,-3.7784,-3.7801,-3.782,-3.7867,-3.7877,-3.7897,-3.7931,-3.7971,-3.7992,-3.8042,-3.807,-3.811,-3.8089,-3.8026,-3.8208,-3.8117,-3.8206,-3.8207,-3.8249,-3.8247,-3.8515,-3.8266,-3.8266,-3.8265,-3.8264,0,-3.7802,-3.7893,-3.7861,-3.7922,-3.8022,-3.7987,-3.8088,-3.8091,-3.8109,-3.817,-3.8118,-3.8177,-3.8144,-3.8201,-3.8184,-3.8283,-3.8295,-3.8293,-3.8288,-3.8299,-3.83,-3.832,-3.8308,-3.8272,-3.827,-3.8269,-3.8268,0,-3.8012,-3.7994,-3.8097,-3.8105,-3.811,-3.8184,-3.8192,-3.8249,-3.8241,-3.8318,-3.8335,-3.8323,-3.8387,-3.8369,-3.8439,-3.8428,-3.8552,-3.8531,-3.8544,-3.8539,-3.8629,-3.8622,-3.8922,-3.896,-3.8685,-3.8687,-3.869,0,-3.8145,-3.8213,-3.8229,-3.8266,-3.8279,-3.8339,-3.8372,-3.834,-3.8377,-3.8411,-3.8465,-3.8523,-3.8569,-3.8674,-3.8673,-3.8726,-3.8707,-3.8808,-3.8715,-3.8724,-3.8711,-3.8707,-3.8715,-3.8828,-3.8831,-3.8833,-3.8835,0,-3.8384,-3.8371,-3.842,-3.8467,-3.8508,-3.8544,-3.8574,-3.8608,-3.8578,-3.8622,-3.8686,-3.8721,-3.8792,-3.8852,-3.89,-3.8912,-3.887,-3.8864,-3.8888,-3.8901,-3.8906,-3.8906,-3.8596,-3.8858,-3.8856,-3.8854,-3.8853,-3.8852,-3.856,-3.8618,-3.8638,-3.8695,-3.8715,-3.8745,-3.8799,-3.8797,-3.8849,-3.8903,-3.8881,-3.8955,-3.8979,-3.904,-3.9058,-3.9116,-3.9078,-3.9112,-3.9121,-3.913,-3.9142,-3.8895,-3.9125,-3.9124,-3.9123,-3.9123,-3.9122,0,-3.8797,-3.8807,-3.8859,-3.8904,-3.8949,-3.8903,-3.8935,-3.8976,-3.9041,-3.9066,-3.9112,-3.9186,-3.9243,-3.9246,-3.9301,-3.9347,-3.9329,-3.9363,-3.936,-3.9364,-3.9172,-3.9147,-3.9376,-3.9376,-3.9376,-3.9376,-3.9376,-3.9376,-3.8926,-3.9022,-3.9012,-3.9118,-3.9127,-3.9198,-3.922,-3.9248,-3.9268,-3.9352,-3.94,-3.94,-3.9417,-3.9472,-3.9524,-3.9523,-3.9546,-3.9587,-3.958,-3.9402,-3.9377,-3.9353,-3.9329,-3.9592,-3.9593,-3.9766,-3.9768,-3.9769]},{"header":{"parameterUnit":"m.s-1","parameterCategory":1,"la1":30.2991,"la2":30.254,"lo1":-89.0895,"lo2":-89.0444,"dy":0.0017,"dx":0.0017,"nx":28,"ny":28,"refTime":"2023-11-13T09:00:00:Z","depth":0,"parameterNumber":3,"parameterNumberName":"V-component_of_WINDS"},"data":[0,0,0,0,0,0,0,0,0,0,0,0,0,0,0,0,0,0,0,0,0,0,0,0,0,0,0,0,0,0,0,0,0,0,0,0,0,0,0,0,0,0,0,0,0,0,0,0,0,0,0,0,0,0,0,0,0,0,-4.3436,-4.3436,0,-4.3492,-4.3493,-4.3494,-4.3447,-4.3445,-4.3443,-4.3441,-4.3495,-4.3499,-4.3502,0,0,0,0,0,0,0,0,0,0,0,0,0,-4.3282,-4.3285,-4.3436,-4.3436,-4.3437,-4.3492,-4.3493,-4.3494,-4.3447,-4.3445,-4.3443,-4.344,-4.3494,-4.3498,-4.3502,0,0,0,0,0,0,0,0,0,0,0,0,0,-4.3344,-4.3286,-4.3435,-4.3421,-4.342,-4.3492,-4.3493,-4.3494,-4.3448,-4.3445,-4.3442,-4.3439,-4.3493,-4.3498,-4.3503,-4.3591,0,0,-4.3518,-4.352,0,0,0,0,0,0,0,0,-4.3341,-4.335,-4.3422,-4.3422,-4.3421,-4.346,-4.3458,-4.3526,-4.3449,-4.3437,-4.3441,-4.3438,-4.3486,-4.3491,-4.3508,-4.3594,-4.3596,-4.3518,-4.3521,-4.3523,-4.3524,0,0,0,0,0,0,0,-4.3337,-4.3347,-4.3458,-4.3423,-4.3422,-4.3409,-4.3415,-4.3471,-4.3477,-4.3438,-4.3435,-4.3442,-4.3485,-4.3503,-4.3509,-4.3597,-4.3518,-4.3522,-4.3525,-4.3527,-4.3757,-4.376,0,0,0,0,0,0,-4.3334,-4.3344,-4.3456,-4.346,-4.3373,-4.3414,-4.3421,-4.345,-4.3476,-4.3477,-4.3445,-4.344,-4.3496,-4.3503,-4.351,-4.3615,-4.3523,-4.3528,-4.353,-4.3753,-4.3757,-4.3761,0,0,0,0,0,0,-4.3331,-4.3345,-4.3454,-4.3401,-4.3414,-4.342,-4.3454,-4.3453,-4.3471,-4.3481,-4.3482,-4.3463,-4.3494,-4.3504,-4.3571,-4.3617,-4.353,-4.3534,-4.375,-4.3755,-4.3759,-4.3826,0,0,0,0,0,0,-4.3327,-4.3344,-4.3379,-4.3402,-4.3417,-4.3516,-4.3456,-4.3456,-4.348,-4.3475,-4.3499,-4.35,-4.3493,-4.3564,-4.3576,-4.3622,-4.3538,-4.3746,-4.3752,-4.3758,-4.382,-4.3833,-4.3844,0,0,0,0,0,-4.3322,-4.3395,-4.3381,-4.3395,-4.3461,-4.3518,-4.3527,-4.3518,-4.3484,-4.3519,-4.3525,-4.3499,-4.361,-4.3572,-4.3585,-4.3632,-4.3743,-4.375,-4.3757,-4.3815,-4.383,-4.3843,0,0,0,0,0,0,-4.3376,-4.3398,-4.3383,-4.3466,-4.3491,-4.351,-4.3554,-4.3535,-4.3569,-4.3562,-4.3549,-4.3554,-4.3626,-4.3636,-4.3593,-4.3719,-4.367,-4.3681,-4.371,-4.3725,-4.3736,-4.3732,-4.3542,0,0,0,0,0,-4.3398,-4.3444,-4.346,-4.3532,-4.3546,-4.3548,-4.3572,-4.3564,-4.3588,-4.3598,-4.3609,-4.3633,-4.3672,-4.3699,-4.3736,-4.3821,-4.3825,-4.386,-4.3871,-4.3881,-4.389,-4.3934,-4.395,-4.3784,-4.3784,-4.3784,0,0,-4.3444,-4.3461,-4.3491,-4.3544,-4.3562,-4.3608,-4.3557,-4.3608,-4.3642,-4.3605,-4.367,-4.3679,-4.3704,-4.3781,-4.3815,-4.3791,-4.3936,-4.389,-4.3898,-4.3901,-4.3943,-4.3959,-4.3973,-4.3789,-4.3788,-4.3787,0,0,-4.355,-4.3569,-4.3631,-4.365,-4.3678,-4.3679,-4.3694,-4.3716,-4.3721,-4.3786,-4.3759,-4.3798,-4.3867,-4.3886,-4.3905,-4.4017,-4.3994,-4.4029,-4.4091,-4.4134,-4.4147,-4.4158,-4.4198,-4.4212,-4.4038,-4.4038,-4.4038,0,-4.3603,-4.3674,-4.3664,-4.3718,-4.3741,-4.3711,-4.3772,-4.379,-4.3829,-4.3845,-4.3818,-4.3903,-4.3918,-4.3998,-4.4025,-4.4042,-4.4057,-4.4027,-4.4146,-4.4157,-4.4168,-4.4205,-4.422,-4.4042,-4.4041,-4.4041,-4.4041,0,-4.3736,-4.3786,-4.3832,-4.3871,-4.3899,-4.3956,-4.3954,-4.3983,-4.3971,-4.3974,-4.404,-4.4057,-4.4096,-4.4114,-4.4103,-4.4192,-4.4177,-4.4148,-4.41,-4.4188,-4.4223,-4.4237,-4.4048,-4.4046,-4.4045,-4.4044,0,0,-4.388,-4.3913,-4.393,-4.3947,-4.3975,-4.4012,-4.4067,-4.4107,-4.4132,-4.4159,-4.4203,-4.4262,-4.4236,-4.4257,-4.4247,-4.4285,-4.4372,-4.4252,-4.4252,-4.4273,-4.447,-4.4491,-4.4508,-4.4357,-4.4359,-4.4361,-4.4467,0,-4.3988,-4.4085,-4.4078,-4.4169,-4.4213,-4.4184,-4.4231,-4.4253,-4.4256,-4.4293,-4.4296,-4.4338,-4.43,-4.4313,-4.4349,-4.4354,-4.4411,-4.4346,-4.4397,-4.4399,-4.4392,-4.4526,-4.4549,-4.4649,-4.4481,-4.4483,-4.4485,0,-4.4127,-4.416,-4.4256,-4.4277,-4.4295,-4.4338,-4.4373,-4.4409,-4.4432,-4.4432,-4.4455,-4.4439,-4.4492,-4.4442,-4.4514,-4.447,-4.449,-4.4495,-4.4498,-4.4503,-4.4447,-4.4534,-4.4681,-4.4696,-4.4506,-4.4505,-4.4503,0,-4.4222,-4.429,-4.4356,-4.4371,-4.4397,-4.4428,-4.444,-4.446,-4.4484,-4.4514,-4.4529,-4.4564,-4.4584,-4.4611,-4.4603,-4.4568,-4.4677,-4.4627,-4.4677,-4.4678,-4.4702,-4.47,-4.4853,-4.4715,-4.4715,-4.4714,-4.4714,0,-4.4343,-4.4403,-4.4399,-4.444,-4.4505,-4.4494,-4.4558,-4.4566,-4.4584,-4.4624,-4.46,-4.4638,-4.4627,-4.4663,-4.4658,-4.4718,-4.4726,-4.4727,-4.4725,-4.4729,-4.4729,-4.4742,-4.4735,-4.4718,-4.4717,-4.4717,-4.4716,0,-4.4461,-4.4461,-4.453,-4.4549,-4.4555,-4.4602,-4.4617,-4.4654,-4.4656,-4.4707,-4.4718,-4.472,-4.4762,-4.4757,-4.4804,-4.48,-4.4874,-4.4863,-4.4867,-4.4865,-4.4915,-4.4911,-4.5082,-4.5104,-4.4951,-4.4953,-4.4954,0,-4.4538,-4.4584,-4.4607,-4.4633,-4.4647,-4.4689,-4.4713,-4.4704,-4.473,-4.4759,-4.4792,-4.4832,-4.4864,-4.4931,-4.4936,-4.4971,-4.4961,-4.5018,-4.4966,-4.4969,-4.4961,-4.4959,-4.4963,-4.5029,-4.5031,-4.5032,-4.5033,0,-4.4676,-4.4673,-4.471,-4.4747,-4.4777,-4.4806,-4.4831,-4.4853,-4.4845,-4.4876,-4.4919,-4.4943,-4.4991,-4.503,-4.5063,-4.5073,-4.5052,-4.505,-4.5063,-4.5068,-4.5068,-4.5069,-4.4895,-4.5046,-4.5045,-4.5044,-4.5043,-4.5042,-4.4775,-4.4814,-4.4836,-4.4878,-4.4896,-4.492,-4.4956,-4.4962,-4.4998,-4.5037,-4.5028,-4.5077,-4.5096,-4.5139,-4.5152,-4.5188,-4.5167,-4.5187,-4.5192,-4.5197,-4.5203,-4.5062,-4.5194,-4.5194,-4.5194,-4.5193,-4.5193,0,-4.4911,-4.4924,-4.4963,-4.4999,-4.5032,-4.5009,-4.5036,-4.5064,-4.5107,-4.5128,-4.516,-4.5208,-4.5246,-4.5253,-4.5289,-4.5316,-4.5307,-4.5326,-4.5324,-4.5326,-4.522,-4.5205,-4.5333,-4.5333,-4.5332,-4.5332,-4.5332,-4.5332,-4.4986,-4.505,-4.505,-4.5121,-4.5133,-4.5181,-4.5198,-4.522,-4.5236,-4.5292,-4.5324,-4.5328,-4.5343,-4.5379,-4.5412,-4.5413,-4.5427,-4.545,-4.5447,-4.5348,-4.5334,-4.532,-4.5306,-4.5453,-4.5453,-4.555,-4.5551,-4.5552]}]]